| time (UTC) | temp F | wind direction | speed MPH | gust MPH | rain 1hr in | rain 24hr in | rain mn in | humidity % | barometer mb |
| 20260507070019 | 56 | 184 | 11.0 | 12.0 | 0.00 | 0.32 | 0.00 | 83 | 1009.9 |
| 20260507065519 | 56 | 146 | 11.0 | 16.0 | 0.00 | 0.32 | 0.00 | 83 | 1009.8 |
| 20260507065012 | 56 | 127 | 12.0 | 13.0 | 0.00 | 0.32 | 0.00 | 85 | 1009.9 |
| 20260507064510 | 55 | 129 | 4.0 | 16.0 | 0.00 | 0.32 | 0.00 | 86 | 1009.9 |
| 20260507064013 | 55 | 122 | 7.0 | 16.0 | 0.00 | 0.32 | 0.00 | 88 | 1009.8 |
| 20260507063510 | 54 | 110 | 6.0 | 13.0 | 0.00 | 0.32 | 0.00 | 88 | 1009.8 |
| 20260507063013 | 54 | 95 | 8.0 | 10.0 | 0.00 | 0.32 | 0.00 | 89 | 1009.7 |
| 20260507062513 | 54 | 156 | 6.0 | 10.0 | 0.00 | 0.32 | 0.00 | 89 | 1009.7 |
| 20260507062018 | 54 | 106 | 8.0 | 11.0 | 0.00 | 0.32 | 0.00 | 90 | 1009.6 |
| 20260507061513 | 54 | 120 | 6.0 | 10.0 | 0.00 | 0.32 | 0.00 | 90 | 1009.7 |
| 20260507061010 | 53 | 131 | 5.0 | 7.0 | 0.00 | 0.32 | 0.00 | 91 | 1009.6 |
| 20260507060512 | 53 | 127 | 7.0 | 9.0 | 0.00 | 0.32 | 0.00 | 92 | 1009.5 |
| 20260507060013 | 52 | 93 | 5.0 | 6.0 | 0.00 | 0.32 | 0.00 | 92 | 1009.5 |
| 20260507055513 | 52 | 127 | 5.0 | 6.0 | 0.00 | 0.32 | 0.00 | 92 | 1009.5 |
| 20260507055011 | 52 | 111 | 2.0 | 4.0 | 0.00 | 0.32 | 0.00 | 92 | 1009.4 |
| 20260507054510 | 52 | 97 | 2.0 | 5.0 | 0.00 | 0.32 | 0.00 | 92 | 1009.4 |
| 20260507054016 | 52 | 109 | 2.0 | 5.0 | 0.00 | 0.32 | 0.00 | 92 | 1009.4 |
| 20260507053516 | 52 | 52 | 4.0 | 4.0 | 0.00 | 0.32 | 0.00 | 92 | 1009.3 |
| 20260507053013 | 52 | 96 | 4.0 | 6.0 | 0.00 | 0.32 | 0.00 | 92 | 1009.3 |
| 20260507052510 | 52 | 97 | 4.0 | 4.0 | 0.00 | 0.32 | 0.00 | 92 | 1009.3 |
| 20260507052012 | 52 | 96 | 2.0 | 5.0 | 0.00 | 0.32 | 0.00 | 92 | 1009.2 |
| 20260507051510 | 52 | 140 | 1.0 | 7.0 | 0.00 | 0.32 | 0.00 | 92 | 1009.1 |
| 20260507051010 | 52 | 127 | 5.0 | 9.0 | 0.00 | 0.32 | 0.00 | 92 | 1009.1 |
| 20260507050516 | 52 | 160 | 2.0 | 7.0 | 0.00 | 0.32 | 0.00 | 92 | 1009.0 |
| 20260507050013 | 52 | 97 | 4.0 | 6.0 | 0.00 | 0.32 | 0.00 | 92 | 1009.0 |
| 20260507045510 | 52 | 122 | 5.0 | 9.0 | 0.00 | 0.32 | 0.00 | 92 | 1008.9 |
| 20260507045014 | 52 | 101 | 7.0 | 7.0 | 0.00 | 0.32 | 0.00 | 92 | 1008.8 |
| 20260507044513 | 52 | 122 | 3.0 | 11.0 | 0.00 | 0.32 | 0.00 | 92 | 1008.8 |
| 20260507044016 | 52 | 160 | 6.0 | 8.0 | 0.00 | 0.32 | 0.00 | 92 | 1008.8 |
| 20260507043516 | 51 | 158 | 9.0 | 10.0 | 0.00 | 0.32 | 0.00 | 92 | 1008.7 |
| 20260507043016 | 51 | 142 | 6.0 | 7.0 | 0.00 | 0.32 | 0.00 | 92 | 1008.8 |
| 20260507042513 | 51 | 99 | 5.0 | 7.0 | 0.00 | 0.32 | 0.00 | 91 | 1008.7 |
| 20260507042018 | 51 | 135 | 4.0 | 6.0 | 0.00 | 0.32 | 0.00 | 91 | 1008.7 |
| 20260507041513 | 51 | 168 | 4.0 | 7.0 | 0.00 | 0.32 | 0.00 | 91 | 1008.6 |
| 20260507041013 | 51 | 160 | 2.0 | 9.0 | 0.00 | 0.32 | 0.00 | 92 | 1008.5 |
| 20260507040510 | 51 | 164 | 5.0 | 8.0 | 0.00 | 0.32 | 0.00 | 91 | 1008.5 |
| 20260507040019 | 51 | 164 | 4.0 | 7.0 | 0.00 | 0.32 | 0.00 | 91 | 1008.5 |
| 20260507035519 | 51 | 136 | 4.0 | 8.0 | 0.00 | 0.32 | 0.00 | 91 | 1008.5 |
| 20260507035012 | 51 | 137 | 6.0 | 10.0 | 0.00 | 0.32 | 0.00 | 91 | 1008.4 |
| 20260507034516 | 51 | 151 | 6.0 | 10.0 | 0.00 | 0.32 | 0.00 | 91 | 1008.4 |
| 20260507034016 | 51 | 176 | 3.0 | 10.0 | 0.00 | 0.32 | 0.00 | 92 | 1008.4 |
| 20260507033513 | 51 | 171 | 4.0 | 9.0 | 0.00 | 0.32 | 0.00 | 92 | 1008.5 |
| 20260507033010 | 51 | 170 | 5.0 | 11.0 | 0.00 | 0.32 | 0.00 | 92 | 1008.5 |
| 20260507032510 | 51 | 131 | 10.0 | 10.0 | 0.00 | 0.32 | 0.00 | 92 | 1008.4 |
| 20260507032012 | 51 | 122 | 5.0 | 12.0 | 0.00 | 0.32 | 0.00 | 92 | 1008.4 |
| 20260507031513 | 51 | 115 | 4.0 | 8.0 | 0.00 | 0.32 | 0.00 | 92 | 1008.3 |
| 20260507031018 | 51 | 197 | 7.0 | 8.0 | 0.00 | 0.32 | 0.00 | 93 | 1008.4 |
| 20260507030516 | 51 | 174 | 3.0 | 5.0 | 0.00 | 0.32 | 0.00 | 93 | 1008.3 |
| 20260507030010 | 52 | 122 | 3.0 | 6.0 | 0.00 | 0.32 | 0.00 | 93 | 1008.3 |
| 20260507025518 | 52 | 162 | 3.0 | 9.0 | 0.00 | 0.32 | 0.00 | 93 | 1008.2 |
| 20260507025010 | 52 | 222 | 5.0 | 9.0 | 0.00 | 0.32 | 0.00 | 93 | 1008.1 |
| 20260507024510 | 52 | 204 | 1.0 | 11.0 | 0.00 | 0.32 | 0.00 | 93 | 1008.1 |
| 20260507024010 | 52 | 197 | 1.0 | 10.0 | 0.00 | 0.32 | 0.00 | 94 | 1008.2 |
| 20260507023510 | 52 | 145 | 2.0 | 10.0 | 0.00 | 0.32 | 0.00 | 94 | 1008.1 |
| 20260507023016 | 52 | 154 | 8.0 | 8.0 | 0.00 | 0.32 | 0.00 | 94 | 1008.2 |
| 20260507022512 | 52 | 135 | 5.0 | 11.0 | 0.00 | 0.32 | 0.00 | 94 | 1008.2 |
| 20260507022010 | 52 | 171 | 5.0 | 11.0 | 0.00 | 0.32 | 0.00 | 94 | 1008.2 |
| 20260507021510 | 52 | 163 | 7.0 | 10.0 | 0.00 | 0.32 | 0.00 | 94 | 1008.1 |
| 20260507021010 | 52 | 173 | 7.0 | 9.0 | 0.00 | 0.32 | 0.00 | 94 | 1008.1 |
| 20260507020510 | 52 | 135 | 7.0 | 10.0 | 0.00 | 0.32 | 0.00 | 94 | 1008.1 |
| 20260507020013 | 52 | 172 | 10.0 | 10.0 | 0.00 | 0.32 | 0.00 | 94 | 1008.1 |
| 20260507015514 | 52 | 145 | 7.0 | 7.0 | 0.00 | 0.32 | 0.00 | 94 | 1008.1 |
| 20260507015010 | 52 | 127 | 7.0 | 8.0 | 0.00 | 0.32 | 0.00 | 94 | 1008.0 |
| 20260507014510 | 53 | 177 | 5.0 | 8.0 | 0.00 | 0.32 | 0.00 | 94 | 1007.9 |
| 20260507014013 | 53 | 127 | 6.0 | 8.0 | 0.00 | 0.32 | 0.00 | 94 | 1008.0 |
| 20260507013513 | 53 | 162 | 4.0 | 9.0 | 0.00 | 0.32 | 0.00 | 94 | 1008.0 |
| 20260507013013 | 53 | 168 | 4.0 | 11.0 | 0.00 | 0.32 | 0.00 | 94 | 1007.9 |
| 20260507012514 | 53 | 127 | 6.0 | 11.0 | 0.00 | 0.32 | 0.00 | 94 | 1008.0 |
| 20260507012010 | 53 | 160 | 5.0 | 8.0 | 0.00 | 0.32 | 0.00 | 94 | 1007.9 |
| 20260507011513 | 53 | 172 | 3.0 | 8.0 | 0.00 | 0.32 | 0.00 | 94 | 1007.8 |
| 20260507011013 | 54 | 137 | 6.0 | 6.0 | 0.00 | 0.32 | 0.00 | 94 | 1007.7 |
| 20260507010516 | 54 | 148 | 5.0 | 6.0 | 0.00 | 0.32 | 0.00 | 94 | 1007.7 |
| 20260507010010 | 54 | 164 | 2.0 | 5.0 | 0.00 | 0.32 | 0.00 | 94 | 1007.7 |
| 20260507005511 | 54 | 176 | 5.0 | 7.0 | 0.00 | 0.32 | 0.00 | 94 | 1007.7 |
| 20260507005016 | 54 | 167 | 3.0 | 4.0 | 0.00 | 0.32 | 0.00 | 94 | 1007.7 |
| 20260507004516 | 54 | 145 | 2.0 | 5.0 | 0.00 | 0.32 | 0.00 | 94 | 1007.7 |
| 20260507004013 | 54 | 151 | 2.0 | 7.0 | 0.00 | 0.32 | 0.00 | 94 | 1007.7 |
| 20260507003513 | 54 | 136 | 3.0 | 7.0 | 0.00 | 0.32 | 0.00 | 94 | 1007.6 |
| 20260507003016 | 55 | 136 | 5.0 | 8.0 | 0.00 | 0.32 | 0.00 | 94 | 1007.6 |
| 20260507002512 | 55 | 168 | 2.0 | 6.0 | 0.00 | 0.32 | 0.00 | 93 | 1007.6 |
| 20260507002016 | 55 | 180 | 3.0 | 8.0 | 0.00 | 0.32 | 0.00 | 94 | 1007.6 |
| 20260507001510 | 55 | 142 | 4.0 | 9.0 | 0.00 | 0.32 | 0.00 | 94 | 1007.6 |
| 20260507001010 | 55 | 166 | 7.0 | 8.0 | 0.00 | 0.32 | 0.00 | 94 | 1007.4 |
| 20260507000510 | 55 | 137 | 5.0 | 8.0 | 0.00 | 0.32 | 0.00 | 94 | 1007.2 |
| 20260507000016 | 55 | 184 | 5.0 | 5.0 | 0.00 | 0.32 | 0.00 | 94 | 1007.3 |
| 20260506235511 | 55 | 154 | 2.0 | 4.0 | 0.00 | 0.32 | 0.00 | 94 | 1007.2 |
| 20260506235010 | 55 | 165 | 1.0 | 4.0 | 0.00 | 0.32 | 0.00 | 94 | 1007.2 |
| 20260506234510 | 55 | 176 | 1.0 | 3.0 | 0.00 | 0.32 | 0.00 | 94 | 1007.2 |
| 20260506234013 | 55 | 155 | 1.0 | 4.0 | 0.00 | 0.32 | 0.00 | 94 | 1007.3 |
| 20260506233510 | 55 | 153 | 4.0 | 5.0 | 0.00 | 0.32 | 0.00 | 94 | 1007.4 |
| 20260506233013 | 55 | 178 | 3.0 | 5.0 | 0.00 | 0.32 | 0.00 | 93 | 1007.3 |
| 20260506232515 | 55 | 145 | 4.0 | 7.0 | 0.00 | 0.32 | 0.00 | 94 | 1007.2 |
| 20260506232013 | 55 | 162 | 3.0 | 7.0 | 0.00 | 0.32 | 0.00 | 94 | 1007.2 |
| 20260506231513 | 55 | 156 | 6.0 | 8.0 | 0.00 | 0.32 | 0.00 | 94 | 1007.2 |
| 20260506231016 | 54 | 162 | 6.0 | 8.0 | 0.00 | 0.32 | 0.00 | 94 | 1007.2 |
| 20260506230510 | 54 | 158 | 5.0 | 7.0 | 0.00 | 0.32 | 0.00 | 94 | 1007.2 |
| 20260506230013 | 54 | 153 | 2.0 | 6.0 | 0.00 | 0.32 | 0.00 | 94 | 1007.2 |
| 20260506225511 | 54 | 152 | 4.0 | 7.0 | 0.00 | 0.32 | 0.00 | 94 | 1007.3 |
| 20260506225013 | 54 | 171 | 5.0 | 8.0 | 0.00 | 0.32 | 0.00 | 94 | 1007.4 |
| 20260506224513 | 54 | 180 | 5.0 | 8.0 | 0.00 | 0.32 | 0.00 | 94 | 1007.4 |
| 20260506224016 | 55 | 138 | 5.0 | 7.0 | 0.00 | 0.32 | 0.00 | 94 | 1007.4 |
| 20260506223510 | 55 | 168 | 3.0 | 6.0 | 0.00 | 0.33 | 0.00 | 94 | 1007.3 |
| 20260506223016 | 55 | 170 | 3.0 | 6.0 | 0.00 | 0.33 | 0.00 | 94 | 1007.4 |
| 20260506222512 | 55 | 184 | 3.0 | 6.0 | 0.00 | 0.34 | 0.00 | 94 | 1007.3 |
| 20260506222016 | 55 | 166 | 5.0 | 6.0 | 0.00 | 0.35 | 0.00 | 94 | 1007.3 |
| 20260506221513 | 55 | 135 | 3.0 | 5.0 | 0.01 | 0.36 | 0.00 | 94 | 1007.3 |
| 20260506221010 | 55 | 126 | 2.0 | 5.0 | 0.02 | 0.37 | 0.00 | 93 | 1007.2 |
| 20260506220513 | 55 | 87 | 4.0 | 6.0 | 0.03 | 0.37 | 0.00 | 93 | 1007.1 |
| 20260506220016 | 55 | 68 | 2.0 | 5.0 | 0.06 | 0.37 | 0.00 | 93 | 1007.1 |
| 20260506215511 | 55 | 81 | 4.0 | 6.0 | 0.07 | 0.39 | 0.00 | 93 | 1007.2 |
| 20260506215013 | 55 | 95 | 4.0 | 5.0 | 0.08 | 0.40 | 0.00 | 93 | 1007.2 |
| 20260506214513 | 55 | 80 | 5.0 | 7.0 | 0.08 | 0.40 | 0.00 | 93 | 1007.2 |
| 20260506214013 | 55 | 64 | 6.0 | 6.0 | 0.09 | 0.42 | 0.00 | 93 | 1007.1 |
| 20260506213510 | 55 | 72 | 4.0 | 6.0 | 0.11 | 0.45 | 0.00 | 92 | 1007.1 |
| 20260506213013 | 55 | 66 | 2.0 | 8.0 | 0.11 | 0.46 | 0.00 | 92 | 1006.9 |
| 20260506212517 | 55 | 94 | 5.0 | 7.0 | 0.11 | 0.47 | 0.00 | 92 | 1007.1 |
| 20260506212010 | 54 | 120 | 6.0 | 8.0 | 0.11 | 0.48 | 0.00 | 92 | 1007.1 |
| 20260506211510 | 54 | 81 | 5.0 | 6.0 | 0.10 | 0.48 | 0.00 | 92 | 1007.0 |
| 20260506211010 | 54 | 91 | 4.0 | 7.0 | 0.09 | 0.48 | 0.00 | 92 | 1007.1 |
| 20260506210513 | 54 | 106 | 5.0 | 8.0 | 0.08 | 0.46 | 0.00 | 92 | 1007.1 |
| 20260506210010 | 54 | 90 | 7.0 | 8.0 | 0.10 | 0.44 | 0.00 | 91 | 1007.2 |
| 20260506205511 | 54 | 104 | 5.0 | 10.0 | 0.11 | 0.43 | 0.00 | 91 | 1007.3 |
| 20260506205010 | 54 | 120 | 8.0 | 10.0 | 0.11 | 0.46 | 0.00 | 91 | 1007.2 |
| 20260506204510 | 55 | 118 | 5.0 | 10.0 | 0.12 | 0.48 | 0.00 | 91 | 1007.2 |
| 20260506204010 | 55 | 128 | 8.0 | 13.0 | 0.11 | 0.47 | 0.00 | 91 | 1007.3 |
| 20260506203513 | 56 | 129 | 5.0 | 13.0 | 0.11 | 0.46 | 0.00 | 91 | 1007.4 |
| 20260506203010 | 56 | 101 | 2.0 | 9.0 | 0.10 | 0.45 | 0.00 | 90 | 1007.3 |
| 20260506202514 | 57 | 140 | 7.0 | 9.0 | 0.11 | 0.45 | 0.00 | 90 | 1007.2 |
| 20260506202013 | 57 | 143 | 6.0 | 9.0 | 0.11 | 0.45 | 0.00 | 89 | 1006.8 |
| 20260506201516 | 57 | 104 | 3.0 | 6.0 | 0.13 | 0.45 | 0.00 | 88 | 1006.5 |
| 20260506201010 | 57 | 35 | 5.0 | 7.0 | 0.18 | 0.45 | 0.00 | 87 | 1006.2 |
| 20260506200510 | 57 | 44 | 2.0 | 6.0 | 0.18 | 0.44 | 0.00 | 87 | 1005.9 |
| 20260506200010 | 57 | 353 | 1.0 | 5.0 | 0.14 | 0.40 | 0.00 | 87 | 1006.0 |
| 20260506195514 | 57 | 314 | 4.0 | 4.0 | 0.11 | 0.37 | 0.00 | 87 | 1005.9 |
| 20260506195010 | 57 | 287 | 3.0 | 5.0 | 0.11 | 0.37 | 0.00 | 87 | 1006.0 |
| 20260506194516 | 57 | 287 | 3.0 | 5.0 | 0.09 | 0.36 | 0.00 | 87 | 1006.1 |
| 20260506194019 | 57 | 257 | 4.0 | 5.0 | 0.09 | 0.36 | 0.00 | 87 | 1006.1 |
| 20260506193513 | 57 | 271 | 3.0 | 6.0 | 0.08 | 0.35 | 0.00 | 86 | 1006.0 |
| 20260506193012 | 58 | 295 | 3.0 | 9.0 | 0.08 | 0.35 | 0.00 | 85 | 1005.8 |
| 20260506192510 | 58 | 249 | 5.0 | 7.0 | 0.07 | 0.34 | 0.00 | 84 | 1005.8 |
| 20260506192010 | 59 | 277 | 4.0 | 6.0 | 0.07 | 0.34 | 0.00 | 82 | 1006.1 |
| 20260506191513 | 60 | 255 | 2.0 | 5.0 | 0.05 | 0.32 | 0.00 | 80 | 1006.3 |
| 20260506191010 | 60 | 266 | 3.0 | 6.0 | 0.00 | 0.27 | 0.00 | 79 | 1006.1 |
| 20260506190517 | 60 | 243 | 2.0 | 4.0 | 0.00 | 0.26 | 0.00 | 79 | 1006.0 |
| 20260506190010 | 60 | 8 | 2.0 | 6.0 | 0.00 | 0.26 | 0.00 | 78 | 1005.7 |
| 20260506185510 | 60 | 269 | 2.0 | 5.0 | 0.00 | 0.26 | 0.00 | 78 | 1005.7 |
| 20260506185013 | 60 | 301 | 3.0 | 3.0 | 0.00 | 0.26 | 0.00 | 78 | 1005.6 |
| 20260506184510 | 60 | 316 | 1.0 | 3.0 | 0.00 | 0.26 | 0.00 | 77 | 1005.6 |
| 20260506184010 | 60 | 10 | 1.0 | 2.0 | 0.00 | 0.26 | 0.00 | 77 | 1005.6 |
| 20260506183511 | 60 | 328 | 0.0 | 3.0 | 0.00 | 0.26 | 0.00 | 76 | 1005.3 |
| 20260506183013 | 61 | 328 | 2.0 | 2.0 | 0.00 | 0.26 | 0.00 | 76 | 1005.2 |
| 20260506182513 | 61 | 328 | 1.0 | 2.0 | 0.00 | 0.26 | 0.00 | 76 | 1005.0 |
| 20260506182010 | 61 | 328 | 2.0 | 5.0 | 0.00 | 0.26 | 0.00 | 75 | 1004.9 |
| 20260506181513 | 61 | 351 | 2.0 | 5.0 | 0.00 | 0.26 | 0.00 | 75 | 1004.8 |
| 20260506181016 | 61 | 353 | 3.0 | 4.0 | 0.00 | 0.26 | 0.00 | 75 | 1004.8 |
| 20260506180514 | 61 | 337 | 0.0 | 5.0 | 0.00 | 0.26 | 0.00 | 75 | 1004.8 |
| 20260506180013 | 61 | 319 | 1.0 | 8.0 | 0.00 | 0.26 | 0.00 | 74 | 1004.7 |
| 20260506175510 | 61 | 3 | 3.0 | 9.0 | 0.00 | 0.26 | 0.00 | 74 | 1004.6 |
| 20260506175010 | 61 | 299 | 3.0 | 6.0 | 0.00 | 0.26 | 0.00 | 73 | 1004.6 |
| 20260506174510 | 61 | 339 | 3.0 | 5.0 | 0.00 | 0.26 | 0.00 | 73 | 1004.7 |
| 20260506174013 | 61 | 352 | 1.0 | 6.0 | 0.00 | 0.26 | 0.00 | 72 | 1004.8 |
| 20260506173517 | 61 | 14 | 4.0 | 6.0 | 0.00 | 0.26 | 0.00 | 72 | 1004.8 |
| 20260506173016 | 61 | 331 | 3.0 | 5.0 | 0.00 | 0.26 | 0.00 | 72 | 1004.8 |
| 20260506172510 | 61 | 277 | 3.0 | 6.0 | 0.00 | 0.26 | 0.00 | 72 | 1004.9 |
| 20260506172010 | 61 | 324 | 2.0 | 7.0 | 0.00 | 0.26 | 0.00 | 72 | 1004.9 |
| 20260506171510 | 61 | 39 | 4.0 | 7.0 | 0.00 | 0.26 | 0.00 | 72 | 1004.8 |
| 20260506171016 | 61 | 47 | 4.0 | 7.0 | 0.00 | 0.26 | 0.00 | 72 | 1004.8 |
| 20260506170511 | 62 | 356 | 5.0 | 6.0 | 0.00 | 0.26 | 0.00 | 72 | 1004.7 |
| 20260506170010 | 62 | 6 | 2.0 | 4.0 | 0.00 | 0.26 | 0.00 | 72 | 1004.6 |
| 20260506165513 | 62 | 345 | 1.0 | 4.0 | 0.00 | 0.26 | 0.00 | 71 | 1004.5 |
| 20260506165013 | 62 | 25 | 2.0 | 5.0 | 0.00 | 0.26 | 0.00 | 70 | 1004.6 |
| 20260506164513 | 63 | 27 | 5.0 | 5.0 | 0.00 | 0.26 | 0.00 | 69 | 1004.7 |
| 20260506164019 | 63 | 51 | 1.0 | 6.0 | 0.00 | 0.26 | 0.00 | 68 | 1004.8 |
| 20260506163511 | 63 | 13 | 5.0 | 5.0 | 0.00 | 0.26 | 0.00 | 68 | 1004.9 |
| 20260506163010 | 64 | 48 | 1.0 | 5.0 | 0.00 | 0.26 | 0.00 | 67 | 1004.9 |
| 20260506162516 | 65 | 41 | 4.0 | 5.0 | 0.00 | 0.26 | 0.00 | 67 | 1005.0 |
| 20260506162010 | 65 | 89 | 2.0 | 4.0 | 0.00 | 0.26 | 0.00 | 69 | 1004.9 |
| 20260506161510 | 64 | 46 | 1.0 | 2.0 | 0.00 | 0.26 | 0.00 | 71 | 1004.8 |
| 20260506161010 | 64 | 37 | 0.0 | 5.0 | 0.01 | 0.26 | 0.00 | 70 | 1004.7 |
| 20260506160511 | 63 | 211 | 0.0 | 3.0 | 0.01 | 0.26 | 0.00 | 69 | 1004.8 |
| 20260506160010 | 61 | 254 | 2.0 | 6.0 | 0.01 | 0.26 | 0.00 | 69 | 1004.8 |
| 20260506155513 | 61 | 141 | 2.0 | 5.0 | 0.01 | 0.26 | 0.00 | 73 | 1004.9 |
| 20260506155013 | 61 | 154 | 3.0 | 10.0 | 0.01 | 0.26 | 0.00 | 70 | 1005.0 |
| 20260506154510 | 61 | 185 | 6.0 | 12.0 | 0.01 | 0.26 | 0.00 | 68 | 1005.0 |
| 20260506154010 | 61 | 211 | 9.0 | 12.0 | 0.01 | 0.26 | 0.00 | 66 | 1005.1 |
| 20260506153517 | 62 | 228 | 8.0 | 15.0 | 0.01 | 0.26 | 0.00 | 65 | 1005.2 |
| 20260506153013 | 62 | 179 | 11.0 | 16.0 | 0.00 | 0.25 | 0.00 | 63 | 1005.3 |
| 20260506152510 | 62 | 174 | 5.0 | 14.0 | 0.00 | 0.25 | 0.00 | 63 | 1005.3 |
| 20260506152010 | 62 | 195 | 11.0 | 13.0 | 0.00 | 0.25 | 0.00 | 64 | 1005.3 |
| 20260506151510 | 62 | 205 | 5.0 | 14.0 | 0.00 | 0.25 | 0.00 | 62 | 1005.3 |
| 20260506151010 | 63 | 225 | 9.0 | 16.0 | 0.00 | 0.25 | 0.00 | 61 | 1005.1 |
| 20260506150511 | 63 | 193 | 6.0 | 16.0 | 0.00 | 0.25 | 0.00 | 60 | 1005.1 |
| 20260506150010 | 64 | 205 | 14.0 | 17.0 | 0.00 | 0.25 | 0.00 | 57 | 1005.3 |
| 20260506145516 | 65 | 174 | 8.0 | 13.0 | 0.00 | 0.25 | 0.00 | 59 | 1005.4 |
| 20260506145013 | 66 | 202 | 6.0 | 12.0 | 0.00 | 0.25 | 0.00 | 62 | 1005.4 |
| 20260506144513 | 66 | 218 | 5.0 | 10.0 | 0.00 | 0.25 | 0.00 | 62 | 1005.5 |
| 20260506144012 | 66 | 282 | 6.0 | 9.0 | 0.00 | 0.25 | 0.00 | 61 | 1005.4 |
| 20260506143513 | 67 | 267 | 3.0 | 9.0 | 0.00 | 0.25 | 0.00 | 61 | 1005.4 |
| 20260506143010 | 67 | 254 | 4.0 | 9.0 | 0.00 | 0.25 | 0.00 | 60 | 1005.5 |
| 20260506142510 | 67 | 282 | 6.0 | 9.0 | 0.00 | 0.25 | 0.00 | 59 | 1005.5 |
| 20260506142019 | 67 | 273 | 6.0 | 10.0 | 0.00 | 0.25 | 0.00 | 58 | 1005.4 |
| 20260506141513 | 68 | 263 | 6.0 | 9.0 | 0.00 | 0.25 | 0.00 | 57 | 1005.4 |
| 20260506141012 | 68 | 270 | 4.0 | 8.0 | 0.00 | 0.25 | 0.00 | 57 | 1005.5 |
| 20260506140510 | 68 | 282 | 2.0 | 5.0 | 0.00 | 0.25 | 0.00 | 56 | 1005.5 |
| 20260506140016 | 69 | 282 | 4.0 | 4.0 | 0.00 | 0.25 | 0.00 | 55 | 1005.5 |
| 20260506135510 | 69 | 282 | 2.0 | 4.0 | 0.00 | 0.25 | 0.00 | 56 | 1005.5 |
| 20260506135016 | 69 | 140 | 2.0 | 4.0 | 0.00 | 0.25 | 0.00 | 55 | 1005.5 |
| 20260506134510 | 69 | 117 | 0.0 | 5.0 | 0.00 | 0.25 | 0.00 | 56 | 1005.6 |
| 20260506134014 | 69 | 104 | 4.0 | 5.0 | 0.00 | 0.25 | 0.00 | 55 | 1005.5 |
| 20260506133510 | 69 | 86 | 2.0 | 6.0 | 0.00 | 0.25 | 0.00 | 56 | 1005.6 |
| 20260506133016 | 69 | 68 | 2.0 | 5.0 | 0.00 | 0.25 | 0.00 | 55 | 1005.6 |
| 20260506132510 | 69 | 74 | 2.0 | 6.0 | 0.00 | 0.25 | 0.00 | 54 | 1005.6 |
| 20260506132013 | 70 | 68 | 1.0 | 6.0 | 0.00 | 0.25 | 0.00 | 55 | 1005.7 |
| 20260506131510 | 70 | 24 | 6.0 | 7.0 | 0.00 | 0.25 | 0.00 | 53 | 1005.7 |
| 20260506131011 | 71 | 35 | 4.0 | 6.0 | 0.00 | 0.25 | 0.00 | 53 | 1005.8 |
| 20260506130510 | 71 | 47 | 2.0 | 5.0 | 0.00 | 0.25 | 0.00 | 54 | 1005.9 |
| 20260506130010 | 70 | 319 | 1.0 | 4.0 | 0.00 | 0.25 | 0.00 | 54 | 1006.0 |
| 20260506125510 | 70 | 162 | 1.0 | 7.0 | 0.00 | 0.25 | 0.00 | 55 | 1005.9 |
| 20260506125010 | 69 | 124 | 2.0 | 5.0 | 0.00 | 0.25 | 0.00 | 56 | 1006.0 |
| 20260506124510 | 69 | 92 | 1.0 | 7.0 | 0.00 | 0.25 | 0.00 | 56 | 1006.2 |
| 20260506124011 | 69 | 88 | 2.0 | 7.0 | 0.00 | 0.25 | 0.00 | 56 | 1006.2 |
| 20260506123519 | 68 | 3 | 3.0 | 7.0 | 0.00 | 0.25 | 0.00 | 59 | 1006.3 |
| 20260506123016 | 67 | 93 | 4.0 | 5.0 | 0.00 | 0.25 | 0.00 | 59 | 1006.4 |
| 20260506122510 | 67 | 71 | 1.0 | 10.0 | 0.00 | 0.25 | 0.00 | 59 | 1006.5 |
| 20260506122016 | 67 | 87 | 7.0 | 9.0 | 0.00 | 0.25 | 0.00 | 59 | 1006.5 |
| 20260506121510 | 67 | 70 | 7.0 | 12.0 | 0.00 | 0.25 | 0.00 | 57 | 1006.5 |
| 20260506121014 | 68 | 72 | 8.0 | 10.0 | 0.00 | 0.25 | 0.00 | 56 | 1006.4 |
| 20260506120516 | 68 | 85 | 8.0 | 15.0 | 0.00 | 0.25 | 0.00 | 56 | 1006.5 |
| 20260506120010 | 68 | 143 | 5.0 | 10.0 | 0.00 | 0.25 | 0.00 | 56 | 1006.4 |
| 20260506115513 | 67 | 194 | 4.0 | 12.0 | 0.00 | 0.25 | 0.00 | 57 | 1006.5 |
| 20260506115013 | 67 | 193 | 4.0 | 11.0 | 0.00 | 0.25 | 0.00 | 56 | 1006.4 |
| 20260506114516 | 67 | 107 | 4.0 | 9.0 | 0.00 | 0.25 | 0.00 | 57 | 1006.5 |
| 20260506114014 | 67 | 138 | 5.0 | 8.0 | 0.00 | 0.25 | 0.00 | 57 | 1006.5 |
| 20260506113510 | 67 | 137 | 5.0 | 11.0 | 0.00 | 0.25 | 0.00 | 56 | 1006.7 |
| 20260506113013 | 66 | 98 | 5.0 | 11.0 | 0.00 | 0.25 | 0.00 | 59 | 1006.6 |
| 20260506112513 | 65 | 126 | 4.0 | 15.0 | 0.00 | 0.25 | 0.00 | 60 | 1006.7 |
| 20260506112010 | 65 | 129 | 8.0 | 12.0 | 0.00 | 0.25 | 0.00 | 59 | 1006.8 |
| 20260506111510 | 65 | 187 | 8.0 | 11.0 | 0.00 | 0.25 | 0.00 | 60 | 1006.8 |
| 20260506111011 | 65 | 166 | 4.0 | 10.0 | 0.00 | 0.25 | 0.00 | 60 | 1006.8 |
| 20260506110519 | 65 | 139 | 7.0 | 13.0 | 0.00 | 0.25 | 0.00 | 60 | 1006.8 |
| 20260506110010 | 66 | 189 | 5.0 | 12.0 | 0.00 | 0.25 | 0.00 | 62 | 1006.8 |
| 20260506105513 | 65 | 72 | 8.0 | 13.0 | 0.00 | 0.25 | 0.00 | 62 | 1006.8 |
| 20260506105013 | 65 | 81 | 2.0 | 12.0 | 0.00 | 0.25 | 0.00 | 64 | 1006.8 |
| 20260506104510 | 64 | 101 | 12.0 | 12.0 | 0.00 | 0.25 | 0.00 | 65 | 1006.8 |
| 20260506104017 | 63 | 130 | 4.0 | 15.0 | 0.00 | 0.25 | 0.00 | 65 | 1006.9 |
| 20260506103510 | 64 | 135 | 10.0 | 11.0 | 0.00 | 0.25 | 0.00 | 65 | 1006.9 |
| 20260506103013 | 64 | 168 | 6.0 | 14.0 | 0.00 | 0.25 | 0.00 | 65 | 1006.9 |
| 20260506102516 | 64 | 54 | 8.0 | 11.0 | 0.00 | 0.25 | 0.00 | 66 | 1006.9 |
| 20260506102010 | 63 | 68 | 2.0 | 11.0 | 0.00 | 0.25 | 0.00 | 67 | 1006.9 |
| 20260506101510 | 63 | 163 | 5.0 | 8.0 | 0.00 | 0.25 | 0.00 | 67 | 1007.0 |
| 20260506101015 | 63 | 167 | 5.0 | 14.0 | 0.00 | 0.25 | 0.00 | 69 | 1007.0 |
| 20260506100510 | 62 | 111 | 10.0 | 13.0 | 0.00 | 0.25 | 0.00 | 68 | 1006.9 |
| 20260506100010 | 63 | 114 | 9.0 | 13.0 | 0.00 | 0.25 | 0.00 | 68 | 1006.9 |
| 20260506095510 | 63 | 109 | 12.0 | 15.0 | 0.00 | 0.25 | 0.00 | 67 | 1006.9 |
| 20260506095010 | 63 | 116 | 3.0 | 14.0 | 0.00 | 0.25 | 0.00 | 69 | 1006.9 |
| 20260506094513 | 62 | 154 | 2.0 | 10.0 | 0.00 | 0.25 | 0.00 | 68 | 1006.9 |
| 20260506094013 | 62 | 115 | 7.0 | 13.0 | 0.00 | 0.25 | 0.00 | 68 | 1006.8 |
| 20260506093513 | 62 | 151 | 10.0 | 13.0 | 0.00 | 0.25 | 0.00 | 68 | 1006.7 |
| 20260506093013 | 62 | 200 | 2.0 | 15.0 | 0.00 | 0.25 | 0.00 | 69 | 1006.8 |
| 20260506092510 | 62 | 147 | 8.0 | 13.0 | 0.00 | 0.25 | 0.00 | 69 | 1006.9 |
| 20260506092013 | 62 | 124 | 5.0 | 8.0 | 0.00 | 0.25 | 0.00 | 71 | 1006.8 |
| 20260506091516 | 62 | 150 | 4.0 | 10.0 | 0.00 | 0.25 | 0.00 | 71 | 1006.8 |
| 20260506091011 | 62 | 114 | 3.0 | 12.0 | 0.00 | 0.25 | 0.00 | 70 | 1006.8 |
| 20260506090513 | 62 | 172 | 5.0 | 13.0 | 0.00 | 0.25 | 0.00 | 70 | 1006.7 |
| 20260506090010 | 62 | 104 | 6.0 | 17.0 | 0.00 | 0.25 | 0.00 | 71 | 1006.7 |
| 20260506085516 | 61 | 112 | 12.0 | 12.0 | 0.00 | 0.25 | 0.00 | 72 | 1006.7 |
| 20260506085016 | 61 | 131 | 11.0 | 15.0 | 0.00 | 0.25 | 0.00 | 72 | 1006.7 |
| 20260506084510 | 60 | 123 | 5.0 | 15.0 | 0.00 | 0.25 | 0.00 | 72 | 1006.8 |
| 20260506084017 | 61 | 168 | 9.0 | 12.0 | 0.00 | 0.25 | 0.00 | 74 | 1175.9 |
| 20260506083510 | 61 | 138 | 8.0 | 15.0 | 0.00 | 0.25 | 0.00 | 74 | 1175.9 |
| 20260506083010 | 61 | 116 | 8.0 | 14.0 | 0.00 | 0.25 | 0.00 | 75 | 1176.0 |
| 20260506082516 | 61 | 99 | 4.0 | 13.0 | 0.00 | 0.25 | 0.00 | 76 | 1176.0 |
| 20260506082010 | 60 | 141 | 1.0 | 11.0 | 0.00 | 0.25 | 0.00 | 76 | 1176.0 |
| 20260506081510 | 60 | 119 | 3.0 | 17.0 | 0.00 | 0.25 | 0.00 | 76 | 1176.0 |
| 20260506081014 | 60 | 160 | 11.0 | 12.0 | 0.00 | 0.25 | 0.00 | 77 | 1176.2 |
| 20260506080510 | 60 | 147 | 3.0 | 14.0 | 0.00 | 0.25 | 0.00 | 77 | 1176.1 |
| 20260506073513 | 59 | 170 | 9.0 | 16.0 | 0.00 | 0.25 | 0.00 | 80 | 1176.2 |
| 20260506073013 | 59 | 125 | 4.0 | 11.0 | 0.00 | 0.25 | 0.00 | 81 | 1176.3 |
| 20260506072513 | 58 | 141 | 9.0 | 10.0 | 0.00 | 0.25 | 0.00 | 82 | 1176.2 |
| 20260506072010 | 58 | 165 | 6.0 | 12.0 | 0.00 | 0.25 | 0.00 | 82 | 1176.2 |
| 20260506071516 | 58 | 152 | 9.0 | 15.0 | 0.00 | 0.25 | 0.00 | 82 | 1176.3 |
| 20260506071011 | 58 | 122 | 6.0 | 10.0 | 0.00 | 0.25 | 0.00 | 83 | 1176.3 |
| 20260506070513 | 58 | 133 | 10.0 | 9.0 | 0.00 | 0.25 | 0.00 | 83 | 1176.3 |